When you browse on this site, cookies collect data to enhance your experience and personalize the content and advertising you see.
Visit our Privacy Policy to learn more. By continuing to use the site, you agree to this use of cookies and data.
  • In Romania
  • List of Countries
  • For 7 days
  • Water Temperature
  • Satellite Maps
  • Weather Map
  • Weather Widgets
  • user-avatar
    Login

    Hourly Weather Krasnyy Torfyanik

    Today, 25 April, Thursday

    Time Temperature Precipitation Wind Pressure Humidity
    00:00 +12°C° 0 mm 1 mps 751 mmHg 63%
    01:00 +12°C° 0 mm 1 mps 751 mmHg 65%
    02:00 +10°C° 0 mm 0 mps 750 mmHg 69%
    03:00 +10°C° 0 mm 0 mps 750 mmHg 70%
    04:00 +11°C° 0 mm 1 mps 750 mmHg 71%
    05:00 +10°C° 0 mm 1 mps 750 mmHg 72%
    06:00 +13°C° 0 mm 1 mps 750 mmHg 65%
    07:00 +15°C° 0 mm 1 mps 750 mmHg 59%
    08:00 +18°C° 0 mm 1 mps 750 mmHg 52%
    09:00 +20°C° 0 mm 1 mps 750 mmHg 47%
    10:00 +22°C° 0 mm 1 mps 750 mmHg 42%
    11:00 +23°C° 0 mm 1 mps 750 mmHg 37%
    12:00 +24°C° 0 mm 1 mps 750 mmHg 35%
    13:00 +25°C° 0 mm 1 mps 750 mmHg 33%
    14:00 +25°C° 0 mm 1 mps 749 mmHg 30%
    15:00 +24°C° 0 mm 1 mps 749 mmHg 35%
    16:00 +22°C° 0 mm 1 mps 749 mmHg 40%
    17:00 +21°C° 0 mm 1 mps 749 mmHg 45%
    18:00 +20°C° 0 mm 1 mps 749 mmHg 47%
    19:00 +19°C° 0 mm 1 mps 749 mmHg 48%
    20:00 +18°C° 0 mm 1 mps 749 mmHg 50%
    21:00 +16°C° 0.1 mm 1 mps 748 mmHg 54%
    22:00 +15°C° 0.1 mm 1 mps 748 mmHg 58%
    23:00 +14°C° 0.1 mm 1 mps 748 mmHg 62%

    Tomorrow, 26 April, Friday

    Time Temperature Precipitation Wind Pressure Humidity
    00:00 +13°C° 0 mm 1 mps 748 mmHg 63%
    01:00 +13°C° 0 mm 1 mps 749 mmHg 65%
    02:00 +12°C° 0 mm 1 mps 749 mmHg 66%
    03:00 +12°C° 0 mm 1 mps 749 mmHg 68%
    04:00 +12°C° 0 mm 1 mps 748 mmHg 71%
    05:00 +11°C° 0 mm 0 mps 748 mmHg 73%
    06:00 +13°C° 0 mm 1 mps 748 mmHg 70%
    07:00 +15°C° 0 mm 1 mps 748 mmHg 66%
    08:00 +16°C° 0 mm 1 mps 748 mmHg 62%
    09:00 +18°C° 0 mm 2 mps 748 mmHg 56%
    10:00 +20°C° 0 mm 2 mps 748 mmHg 49%
    11:00 +21°C° 0 mm 2 mps 748 mmHg 43%
    12:00 +21°C° 0 mm 2 mps 747 mmHg 42%
    13:00 +21°C° 0 mm 2 mps 747 mmHg 41%
    14:00 +21°C° 0 mm 2 mps 747 mmHg 39%
    15:00 +22°C° 0 mm 1 mps 746 mmHg 40%
    16:00 +22°C° 0 mm 1 mps 746 mmHg 41%
    17:00 +22°C° 0 mm 1 mps 746 mmHg 42%
    18:00 +20°C° 0 mm 1 mps 746 mmHg 45%
    19:00 +19°C° 0 mm 1 mps 745 mmHg 48%
    20:00 +17°C° 0 mm 2 mps 745 mmHg 52%
    21:00 +16°C° 0 mm 2 mps 745 mmHg 54%
    22:00 +15°C° 0 mm 2 mps 745 mmHg 56%
    23:00 +14°C° 0 mm 2 mps 744 mmHg 59%

    Day after tomorrow, 27 April, Saturday

    Time Temperature Precipitation Wind Pressure Humidity
    00:00 +14°C° 0 mm 2 mps 744 mmHg 61%
    01:00 +13°C° 0 mm 2 mps 744 mmHg 63%
    02:00 +12°C° 0 mm 2 mps 743 mmHg 66%
    03:00 +12°C° 0 mm 2 mps 743 mmHg 68%
    04:00 +12°C° 0 mm 2 mps 742 mmHg 70%
    05:00 +12°C° 0 mm 2 mps 742 mmHg 71%
    06:00 +14°C° 0 mm 2 mps 742 mmHg 66%
    07:00 +16°C° 0 mm 3 mps 742 mmHg 60%
    08:00 +17°C° 0 mm 3 mps 741 mmHg 55%
    09:00 +19°C° 0 mm 4 mps 741 mmHg 49%
    10:00 +20°C° 0 mm 4 mps 740 mmHg 43%
    11:00 +22°C° 0 mm 5 mps 740 mmHg 37%
    12:00 +22°C° 0 mm 4 mps 740 mmHg 36%
    13:00 +22°C° 0 mm 4 mps 739 mmHg 35%
    14:00 +23°C° 0 mm 4 mps 739 mmHg 34%
    15:00 +24°C° 0 mm 3 mps 738 mmHg 36%
    16:00 +22°C° 0 mm 3 mps 738 mmHg 38%
    17:00 +23°C° 0 mm 2 mps 738 mmHg 40%
    18:00 +20°C° 0.1 mm 2 mps 738 mmHg 50%
    19:00 +17°C° 0.1 mm 2 mps 737 mmHg 60%
    20:00 +14°C° 0.1 mm 3 mps 737 mmHg 70%
    21:00 +13°C° 0.6 mm 3 mps 738 mmHg 77%
    22:00 +12°C° 0.6 mm 3 mps 738 mmHg 84%
    23:00 +12°C° 0.6 mm 3 mps 738 mmHg 92%

    28 April, Sunday

    Time Temperature Precipitation Wind Pressure Humidity
    00:00 +11°C° 0.5 mm 4 mps 738 mmHg 90%
    01:00 +11°C° 0.5 mm 4 mps 738 mmHg 89%
    02:00 +9°C° 0.5 mm 5 mps 739 mmHg 87%
    03:00 +8°C° 0.1 mm 5 mps 739 mmHg 86%
    04:00 +7°C° 0.1 mm 5 mps 740 mmHg 85%
    05:00 +5°C° 0.1 mm 5 mps 740 mmHg 84%
    06:00 +5°C° 0 mm 5 mps 741 mmHg 79%
    07:00 +3°C° 0 mm 5 mps 742 mmHg 74%
    08:00 +3°C° 0 mm 5 mps 743 mmHg 69%
    09:00 +5°C° 0 mm 5 mps 744 mmHg 60%
    10:00 +6°C° 0 mm 5 mps 744 mmHg 52%
    11:00 +7°C° 0 mm 5 mps 745 mmHg 44%
    12:00 +7°C° 0 mm 5 mps 745 mmHg 42%
    13:00 +7°C° 0 mm 5 mps 745 mmHg 41%
    14:00 +8°C° 0 mm 5 mps 746 mmHg 39%
    15:00 +7°C° 0 mm 5 mps 746 mmHg 39%
    16:00 +7°C° 0 mm 5 mps 746 mmHg 39%
    17:00 +6°C° 0 mm 5 mps 746 mmHg 39%
    18:00 +5°C° 0 mm 4 mps 747 mmHg 44%
    19:00 +4°C° 0 mm 3 mps 747 mmHg 48%
    20:00 +2°C° 0 mm 3 mps 748 mmHg 52%
    21:00 +2°C° 0 mm 2 mps 748 mmHg 55%
    22:00 +2°C° 0 mm 2 mps 749 mmHg 58%
    23:00 +1°C° 0 mm 2 mps 749 mmHg 61%

    29 April, Monday

    Time Temperature Precipitation Wind Pressure Humidity
    00:00 +1°C° 0 mm 2 mps 750 mmHg 62%
    01:00 -1°C° 0 mm 2 mps 750 mmHg 64%
    02:00 -1°C° 0 mm 2 mps 750 mmHg 66%
    03:00 -2°C° 0 mm 2 mps 750 mmHg 66%
    04:00 -2°C° 0 mm 2 mps 751 mmHg 67%
    05:00 -2°C° 0 mm 2 mps 751 mmHg 67%
    06:00 0°C° 0 mm 3 mps 751 mmHg 59%
    07:00 +1°C° 0 mm 3 mps 751 mmHg 51%
    08:00 +3°C° 0 mm 3 mps 752 mmHg 43%
    09:00 +4°C° 0 mm 3 mps 752 mmHg 40%
    10:00 +5°C° 0 mm 3 mps 751 mmHg 38%
    11:00 +7°C° 0 mm 3 mps 751 mmHg 35%
    12:00 +7°C° 0 mm 3 mps 751 mmHg 35%
    13:00 +8°C° 0 mm 3 mps 751 mmHg 34%
    14:00 +8°C° 0 mm 3 mps 751 mmHg 34%
    15:00 +8°C° 0 mm 3 mps 750 mmHg 35%
    16:00 +8°C° 0 mm 3 mps 750 mmHg 36%
    17:00 +8°C° 0 mm 3 mps 750 mmHg 37%
    18:00 +6°C° 0 mm 2 mps 750 mmHg 44%
    19:00 +4°C° 0 mm 2 mps 750 mmHg 50%
    20:00 +4°C° 0 mm 1 mps 750 mmHg 56%
    21:00 +3°C° 0 mm 1 mps 751 mmHg 57%
    22:00 +2°C° 0 mm 1 mps 751 mmHg 59%
    23:00 +1°C° 0 mm 1 mps 751 mmHg 60%

    30 April, Tuesday

    Time Temperature Precipitation Wind Pressure Humidity
    00:00 +1°C° 0 mm 1 mps 751 mmHg 60%
    01:00 0°C° 0 mm 0 mps 751 mmHg 60%
    02:00 -1°C° 0 mm 0 mps 751 mmHg 60%
    03:00 -1°C° 0 mm 0 mps 751 mmHg 59%
    04:00 0°C° 0 mm 0 mps 751 mmHg 57%
    05:00 0°C° 0 mm 0 mps 751 mmHg 56%
    06:00 +2°C° 0 mm 0 mps 751 mmHg 49%
    07:00 +5°C° 0 mm 0 mps 751 mmHg 43%
    08:00 +8°C° 0 mm 1 mps 751 mmHg 36%
    09:00 +9°C° 0 mm 1 mps 751 mmHg 34%
    10:00 +10°C° 0 mm 1 mps 751 mmHg 33%
    11:00 +12°C° 0 mm 1 mps 751 mmHg 31%
    12:00 +12°C° 0 mm 1 mps 750 mmHg 30%
    13:00 +13°C° 0 mm 1 mps 750 mmHg 29%
    14:00 +13°C° 0 mm 1 mps 749 mmHg 29%
    15:00 +13°C° 0 mm 1 mps 749 mmHg 29%
    16:00 +12°C° 0 mm 1 mps 749 mmHg 30%
    17:00 +11°C° 0 mm 0 mps 748 mmHg 31%
    18:00 +9°C° 0 mm 0 mps 748 mmHg 36%
    19:00 +7°C° 0 mm 0 mps 748 mmHg 42%
    20:00 +5°C° 0 mm 0 mps 748 mmHg 47%
    21:00 +4°C° 0 mm 0 mps 748 mmHg 50%
    22:00 +5°C° 0 mm 1 mps 748 mmHg 52%
    23:00 +4°C° 0 mm 1 mps 748 mmHg 54%
    Show more